HULIANWANG DIGUI-35

导读

HULIANWANG DIGUI-35卫星是中国于2025年7月27日发射的低轨互联网卫星,属于中国卫星互联网星座组网建设中的重要一环。该卫星旨在完善全球覆盖的互联网通信网络,为偏远地区、海洋空域等提供稳定高速的宽带接入服务,助力全球互联网普惠覆盖,也进一步推动中国低轨卫星星座布局的完善,提升空间信息基础设施能力。

Basic Information
目录编号:
64956
目录名称:
HULIANWANG DIGUI-35
国际标识:
2025-159A
轨道中心:
EARTH
卫星名称:
HULIANWANG DIGUI-35
卫星全名:
HULIANWANG DIGUI-35
卫星状态:
在轨 (已飞行324 天)
发射日期:
2025-07-27 UTC
国别 :
中国 (CN)
星等 :
--
Orbit Information
数据来源 国际轨道数据 AOE轨道数据
星历时间 2026-06-16T14:27:49+0800
5小时前
查看轨道信息
2026-06-16T06:00:00+0800
14小时前
查看轨道信息
半长轴 7546.054km 7546.052km
偏心率 0.0004901 0.0004716
轨道倾角 86.494° 86.496°
近地点辐角 114.913° 114.997°
升交点赤经 282.739° 282.857°
平近点角 245.251° 4.715°
近地点 1164.218km 1164.356km
远地点 1171.616km 1171.474km
周期 108.728分钟 108.727分钟
每日圈数 13.244116 13.24412
Detailed Information
使用方式:
暂无
2D Orbit Map
3D Orbit Map
Orbit Altitude Analysis Chart
Orbit Inclination Analysis Chart
Orbit Comprehensive Analysis Chart
View Comprehensive Chart